Time,TemperatureF,DewpointF,PressureIn,WindDirection,WindDirectionDegrees,WindSpeedMPH,WindSpeedGustMPH,Humidity,HourlyPrecipIn,Conditions,Clouds,dailyrainin,SoftwareType,DateUTC
2015-09-05 00:04:00,51.0,49.0,30.04,SE,132,0.0,1.0,94,0.00,,,0.00,weatherlink.com 1.10,2015-09-05 07:04:00,
2015-09-05 00:19:00,50.6,49.0,30.04,SE,132,0.0,1.0,94,0.00,,,0.00,weatherlink.com 1.10,2015-09-05 07:19:00,
2015-09-05 00:34:00,50.4,49.0,30.04,ESE,110,0.0,1.0,94,0.00,,,0.00,weatherlink.com 1.10,2015-09-05 07:34:00,
2015-09-05 00:49:00,49.7,48.0,30.04,ESE,110,0.0,0.0,95,0.00,,,0.00,weatherlink.com 1.10,2015-09-05 07:49:00,
2015-09-05 01:04:00,49.3,48.0,30.04,ESE,110,0.0,0.0,95,0.00,,,0.00,weatherlink.com 1.10,2015-09-05 08:04:00,
2015-09-05 01:19:00,48.9,48.0,30.04,ESE,110,0.0,0.0,95,0.00,,,0.00,weatherlink.com 1.10,2015-09-05 08:19:00,
2015-09-05 01:34:00,48.6,47.0,30.05,ESE,110,0.0,1.0,95,0.00,,,0.00,weatherlink.com 1.10,2015-09-05 08:34:00,
2015-09-05 01:49:00,48.5,48.0,30.05,ESE,110,0.0,1.0,96,0.00,,,0.00,weatherlink.com 1.10,2015-09-05 08:49:00,
2015-09-05 02:04:00,48.3,47.0,30.05,ESE,110,0.0,1.0,96,0.00,,,0.00,weatherlink.com 1.10,2015-09-05 09:04:00,
2015-09-05 02:19:00,47.9,47.0,30.06,ESE,110,0.0,1.0,96,0.00,,,0.00,weatherlink.com 1.10,2015-09-05 09:19:00,
2015-09-05 02:34:00,47.8,47.0,30.05,ESE,110,0.0,1.0,96,0.00,,,0.00,weatherlink.com 1.10,2015-09-05 09:34:00,
2015-09-05 02:49:00,47.8,47.0,30.06,ESE,111,0.0,1.0,96,0.00,,,0.00,weatherlink.com 1.10,2015-09-05 09:49:00,
2015-09-05 03:04:00,47.6,47.0,30.06,ESE,111,0.0,1.0,96,0.00,,,0.00,weatherlink.com 1.10,2015-09-05 10:04:00,
2015-09-05 03:20:00,47.4,46.0,30.07,ESE,111,0.0,1.0,96,0.00,,,0.00,weatherlink.com 1.10,2015-09-05 10:20:00,
2015-09-05 03:35:00,47.3,47.0,30.07,ESE,111,0.0,1.0,97,0.00,,,0.00,weatherlink.com 1.10,2015-09-05 10:35:00,
2015-09-05 03:50:00,47.7,47.0,30.07,ENE,59,1.0,2.0,97,0.00,,,0.00,weatherlink.com 1.10,2015-09-05 10:50:00,
2015-09-05 04:05:00,47.8,47.0,30.07,SE,132,0.0,1.0,97,0.00,,,0.00,weatherlink.com 1.10,2015-09-05 11:05:00,
2015-09-05 04:20:00,47.8,47.0,30.08,East,97,0.0,1.0,97,0.00,,,0.00,weatherlink.com 1.10,2015-09-05 11:20:00,
2015-09-05 04:35:00,47.4,47.0,30.08,East,97,0.0,1.0,97,0.00,,,0.00,weatherlink.com 1.10,2015-09-05 11:35:00,
2015-09-05 04:50:00,47.3,47.0,30.08,ESE,117,0.0,1.0,97,0.00,,,0.00,weatherlink.com 1.10,2015-09-05 11:50:00,
2015-09-05 05:05:00,47.3,47.0,30.08,ENE,71,0.0,1.0,97,0.00,,,0.00,weatherlink.com 1.10,2015-09-05 12:05:00,
2015-09-05 05:20:00,47.1,46.0,30.08,ENE,67,0.0,1.0,97,0.00,,,0.00,weatherlink.com 1.10,2015-09-05 12:20:00,
2015-09-05 05:35:00,47.0,46.0,30.09,NE,38,0.0,0.0,97,0.00,,,0.00,weatherlink.com 1.10,2015-09-05 12:35:00,
2015-09-05 05:50:00,46.8,46.0,30.09,NE,41,0.0,1.0,97,0.00,,,0.00,weatherlink.com 1.10,2015-09-05 12:50:00,
2015-09-05 06:05:00,46.6,46.0,30.09,NE,42,0.0,1.0,97,0.00,,,0.00,weatherlink.com 1.10,2015-09-05 13:05:00,
2015-09-05 06:20:00,46.4,46.0,30.10,NE,46,0.0,1.0,97,0.00,,,0.00,weatherlink.com 1.10,2015-09-05 13:20:00,
2015-09-05 06:35:00,46.3,46.0,30.11,ENE,69,0.0,1.0,97,0.00,,,0.00,weatherlink.com 1.10,2015-09-05 13:35:00,
2015-09-05 06:50:00,45.9,45.0,30.11,ENE,68,0.0,1.0,97,0.00,,,0.00,weatherlink.com 1.10,2015-09-05 13:50:00,
2015-09-05 07:05:00,45.7,45.0,30.12,ENE,69,0.0,1.0,97,0.00,,,0.00,weatherlink.com 1.10,2015-09-05 14:05:00,
2015-09-05 07:20:00,46.1,45.0,30.12,ENE,68,0.0,1.0,97,0.00,,,0.00,weatherlink.com 1.10,2015-09-05 14:20:00,
2015-09-05 07:35:00,46.5,46.0,30.13,ENE,74,0.0,1.0,98,0.00,,,0.00,weatherlink.com 1.10,2015-09-05 14:35:00,
2015-09-05 07:50:00,47.9,47.0,30.13,ENE,74,0.0,1.0,98,0.00,,,0.00,weatherlink.com 1.10,2015-09-05 14:50:00,
2015-09-05 08:05:00,48.7,48.0,30.14,ENE,62,0.0,1.0,98,0.00,,,0.00,weatherlink.com 1.10,2015-09-05 15:05:00,
2015-09-05 08:20:00,49.4,49.0,30.14,ENE,61,0.0,1.0,98,0.00,,,0.00,weatherlink.com 1.10,2015-09-05 15:20:00,
2015-09-05 08:35:00,50.9,50.0,30.14,ENE,66,0.0,1.0,98,0.00,,,0.00,weatherlink.com 1.10,2015-09-05 15:35:00,
2015-09-05 09:05:00,54.6,54.0,30.15,SSE,152,0.0,1.0,98,0.00,,,0.00,weatherlink.com 1.10,2015-09-05 16:05:00,
2015-09-05 09:20:00,55.8,55.0,30.15,ESE,116,0.0,1.0,97,0.00,,,0.00,weatherlink.com 1.10,2015-09-05 16:20:00,
2015-09-05 09:35:00,56.7,55.0,30.16,SSE,164,0.0,2.0,95,0.00,,,0.00,weatherlink.com 1.10,2015-09-05 16:35:00,
2015-09-05 09:50:00,58.6,56.0,30.15,SSW,209,0.0,2.0,92,0.00,,,0.00,weatherlink.com 1.10,2015-09-05 16:50:00,
2015-09-05 10:06:00,59.3,55.0,30.16,SSW,200,2.0,2.0,86,0.00,,,0.00,weatherlink.com 1.10,2015-09-05 17:06:00,